Date String (YYYY-MM-DD hh:mm:ss) UTC,Instrument flags,absolute air pressure of the measurement (hPa),sample flow rate (lpm),inlet stack bypass flow (lpm),air temperature of the measurement (°C),ambient temperature measured by the external sensor (°C),aerosol sample conditioner tube jacket temperature (°C),OPC LED temperature (°C),internal box temperature (°C),relative humidity of the measurement (%),span deviation,mass concentration of particles derived from Lorenz-Mie calculation of OPC scattering (μg/m³),mass concentration of particles derived from Lorenz-Mie calculation of OPC scattering (μg/m³),mass concentration of particles derived from Lorenz-Mie calculation of OPC scattering (μg/m³)
DateTimeUTC,F1_M11,P_M11,Q1_M11,Q2_M11,T1_M11,T2_M11,T3_M11,T4_M11,T5_M11,U1_M11,ZSPAN_M11,X2_M11,X0_M11,X1_M11
2023-07-19 09:00:00,SystemResetWarning,0834.2,5.01,000.00,029.6,028.0,000.0,038.0,031.2,30.4,0000.0,0007.34,0015.77,0006.28
2023-07-19 09:01:00,SystemResetWarning,0834.1,4.99,000.00,029.6,026.5,000.0,037.9,031.0,30.2,0000.0,0007.38,0015.62,0006.27
2023-07-19 09:02:00,SystemResetWarning,0834.1,5.02,000.00,029.5,025.6,000.0,037.8,030.8,30.4,0000.0,0007.39,0016.11,0006.26
2023-07-19 09:03:00,SystemResetWarning,0834.1,5.00,000.00,029.4,025.7,000.0,037.8,030.6,30.5,0000.0,0007.42,0016.03,0006.26
2023-07-19 09:04:00,SystemResetWarning,0834.1,5.00,000.00,029.4,026.0,000.0,037.8,030.6,31.0,0000.0,0007.42,0015.94,0006.24
2023-07-19 09:05:00,SystemResetWarning,0834.1,5.00,000.00,029.3,026.4,000.0,037.8,030.6,30.7,0000.0,0007.45,0016.17,0006.24
2023-07-19 09:06:00,SystemResetWarning,0834.1,5.01,000.00,029.3,026.7,000.0,037.8,030.7,30.7,0000.0,0007.45,0015.74,0006.24
2023-07-19 09:07:00,SystemResetWarning,0834.1,5.00,000.00,029.4,027.1,000.0,037.9,030.8,30.8,0000.0,0007.49,0016.00,0006.25
2023-07-19 09:08:00,SystemResetWarning,0834.1,5.00,000.00,029.4,027.3,000.0,037.9,030.8,31.0,0000.0,0007.49,0016.77,0006.24
2023-07-19 09:09:00,SystemResetWarning,0834.1,4.99,000.00,029.4,027.6,000.0,037.9,030.9,31.3,0000.0,0007.52,0017.35,0006.24
2023-07-19 09:10:00,SystemResetWarning,0834.1,4.99,000.00,029.4,027.8,000.0,037.9,031.0,31.3,0000.0,0007.59,0017.53,0006.25
2023-07-19 09:11:00,SystemResetWarning,0834.2,5.00,000.00,029.5,027.9,000.0,037.9,031.0,31.3,0000.0,0007.64,0017.49,0006.24
2023-07-19 09:12:00,SystemResetWarning,0834.2,5.01,000.00,029.5,028.1,000.0,037.9,031.1,31.3,0000.0,0007.60,0017.83,0006.19
2023-07-19 09:13:00,SystemResetWarning,0834.2,5.01,000.00,029.5,028.2,000.0,037.9,031.1,31.3,0000.0,0007.51,0016.81,0006.15
2023-07-19 09:14:00,SystemResetWarning,0834.2,4.99,000.00,029.5,027.9,000.0,037.9,031.1,31.3,0000.0,0007.45,0016.43,0006.13
2023-07-19 09:15:00,SystemResetWarning,0834.2,5.00,000.00,029.5,026.3,000.0,037.8,031.0,31.1,0000.0,0007.42,0016.82,0006.12
2023-07-19 09:16:00,SystemResetWarning,0834.2,5.01,000.00,029.4,025.6,000.0,037.7,030.8,31.1,0000.0,0007.35,0016.90,0006.10
2023-07-19 09:17:00,SystemResetWarning,0834.2,5.01,000.00,029.4,025.7,000.0,037.7,030.6,31.3,0000.0,0007.34,0017.30,0006.08
2023-07-19 09:18:00,SystemResetWarning,0834.2,4.99,000.00,029.3,026.0,000.0,037.7,030.6,31.3,0000.0,0007.28,0017.11,0006.04
2023-07-19 09:19:00,SystemResetWarning,0834.2,5.01,000.00,029.3,026.4,000.0,037.8,030.7,31.3,0000.0,0007.23,0015.84,0006.03
2023-07-19 09:20:00,SystemResetWarning,0834.2,5.00,000.00,029.3,026.8,000.0,037.8,030.7,31.2,0000.0,0007.23,0014.71,0006.01
2023-07-19 09:21:00,SystemResetWarning,0834.1,5.00,000.00,029.3,027.1,000.0,037.8,030.8,30.8,0000.0,0007.20,0015.02,0006.01
2023-07-19 09:22:00,SystemResetWarning,0834.1,5.01,000.00,029.3,027.3,000.0,037.8,030.8,30.9,0000.0,0007.14,0014.99,0006.00
2023-07-19 09:23:00,SystemResetWarning,0834.2,4.99,000.00,029.3,027.6,000.0,037.8,030.9,29.8,0000.0,0007.16,0015.22,0006.04
2023-07-19 09:24:00,SystemResetWarning,0834.2,5.00,000.00,029.4,027.8,000.0,037.8,031.0,28.8,0000.0,0007.19,0015.49,0006.08
2023-07-19 09:25:00,SystemResetWarning,0834.1,5.00,000.00,029.4,027.9,000.0,037.8,031.0,29.0,0000.0,0007.17,0015.52,0006.09
2023-07-19 09:26:00,SystemResetWarning,0834.2,5.00,000.00,029.4,028.0,000.0,037.8,031.0,29.7,0000.0,0007.15,0014.87,0006.11
2023-07-19 09:27:00,SystemResetWarning,0834.2,5.01,000.00,029.5,028.2,000.0,037.9,031.1,29.6,0000.0,0007.18,0014.85,0006.13
2023-07-19 09:28:00,SystemResetWarning,0834.1,5.00,000.00,029.5,027.7,000.0,037.8,031.1,29.5,0000.0,0007.17,0015.14,0006.17
2023-07-19 09:29:00,SystemResetWarning,0834.1,4.99,000.00,029.5,026.0,000.0,037.7,030.9,29.7,0000.0,0007.22,0014.94,0006.22
2023-07-19 09:30:00,SystemResetWarning,0834.1,5.02,000.00,029.4,025.5,000.0,037.6,030.7,29.6,0000.0,0007.25,0015.10,0006.25
2023-07-19 09:31:00,SystemResetWarning,0834.0,5.00,000.00,029.3,025.7,000.0,037.7,030.5,28.9,0000.0,0007.22,0015.36,0006.26
2023-07-19 09:32:00,SystemResetWarning,0834.0,5.00,000.00,029.2,026.0,000.0,037.7,030.6,29.1,0000.0,0007.20,0014.82,0006.25
2023-07-19 09:33:00,SystemResetWarning,0834.0,5.00,000.00,029.2,026.4,000.0,037.7,030.6,27.4,0000.0,0007.19,0014.37,0006.25
2023-07-19 09:34:00,SystemResetWarning,0834.0,5.00,000.00,029.2,026.8,000.0,037.7,030.7,25.9,0000.0,0007.14,0013.79,0006.23
2023-07-19 09:35:00,SystemResetWarning,0834.0,5.00,000.00,029.3,027.1,000.0,037.7,030.8,25.1,0000.0,0007.08,0013.61,0006.18
2023-07-19 09:36:00,SystemResetWarning,0834.0,5.00,000.00,029.3,027.3,000.0,037.7,030.8,25.8,0000.0,0007.04,0013.76,0006.11
2023-07-19 09:37:00,SystemResetWarning,0834.0,4.99,000.00,029.3,027.6,000.0,037.8,030.9,26.9,0000.0,0007.04,0014.38,0006.05
2023-07-19 09:38:00,SystemResetWarning,0834.0,4.99,000.00,029.3,027.8,000.0,037.8,030.9,25.9,0000.0,0006.97,0013.95,0006.01
2023-07-19 09:39:00,SystemResetWarning,0834.0,5.00,000.00,029.4,027.9,000.0,037.8,031.0,25.6,0000.0,0006.93,0013.49,0005.96
2023-07-19 09:40:00,SystemResetWarning,0834.0,5.00,000.00,029.4,028.1,000.0,037.8,031.0,25.6,0000.0,0006.88,0013.49,0005.89
2023-07-19 09:41:00,SystemResetWarning,0834.0,5.01,000.00,029.4,028.0,000.0,037.8,031.1,25.5,0000.0,0006.82,0013.32,0005.85
2023-07-19 09:42:00,SystemResetWarning,0833.9,4.98,000.00,029.4,026.4,000.0,037.7,030.9,25.9,0000.0,0006.77,0012.92,0005.80
2023-07-19 09:43:00,SystemResetWarning,0833.9,5.01,000.00,029.3,025.5,000.0,037.6,030.7,25.7,0000.0,0006.68,0012.75,0005.74
2023-07-19 09:44:00,SystemResetWarning,0833.9,5.01,000.00,029.3,025.5,000.0,037.6,030.5,25.6,0000.0,0006.64,0012.79,0005.70
2023-07-19 09:45:00,SystemResetWarning,0833.9,5.00,000.00,029.2,025.9,000.0,037.6,030.5,26.8,0000.0,0006.53,0012.46,0005.59
2023-07-19 09:46:00,SystemResetWarning,0833.9,4.99,000.00,029.2,026.2,000.0,037.6,030.6,26.5,0000.0,0006.37,0012.29,0005.46
2023-07-19 09:47:00,SystemResetWarning,0833.9,5.00,000.00,029.2,026.6,000.0,037.7,030.6,26.5,0000.0,0006.17,0011.68,0005.33
2023-07-19 09:48:00,SystemResetWarning,0833.9,5.00,000.00,029.2,027.0,000.0,037.7,030.7,25.8,0000.0,0006.00,0010.88,0005.23
2023-07-19 09:49:00,SystemResetWarning,0833.9,5.01,000.00,029.2,027.2,000.0,037.7,030.8,25.7,0000.0,0005.94,0010.79,0005.16
2023-07-19 09:50:00,SystemResetWarning,0833.9,5.00,000.00,029.2,027.5,000.0,037.7,030.8,25.9,0000.0,0005.75,0010.14,0005.02
2023-07-19 09:51:00,SystemResetWarning,0833.9,5.00,000.00,029.3,027.7,000.0,037.7,030.9,26.1,0000.0,0005.56,0009.67,0004.90
2023-07-19 09:52:00,SystemResetWarning,0833.9,5.00,000.00,029.3,027.9,000.0,037.7,030.9,25.8,0000.0,0005.41,0009.37,0004.77
2023-07-19 09:53:00,SystemResetWarning,0833.9,5.00,000.00,029.3,028.0,000.0,037.7,031.0,25.8,0000.0,0005.23,0009.19,0004.64
2023-07-19 09:54:00,SystemResetWarning,0833.9,5.00,000.00,029.4,028.1,000.0,037.8,031.0,25.7,0000.0,0005.11,0009.07,0004.53
2023-07-19 09:55:00,SystemResetWarning,0833.8,5.00,000.00,029.4,027.9,000.0,037.7,031.0,25.5,0000.0,0004.93,0008.67,0004.41
2023-07-19 09:56:00,SystemResetWarning,0833.9,4.99,000.00,029.4,026.2,000.0,037.6,030.8,25.4,0000.0,0004.84,0008.37,0004.35
2023-07-19 09:57:00,SystemResetWarning,0833.9,5.01,000.00,029.3,025.4,000.0,037.5,030.6,25.4,0000.0,0004.88,0008.59,0004.38
2023-07-19 09:58:00,SystemResetWarning,0833.9,5.01,000.00,029.2,025.6,000.0,037.5,030.4,25.7,0000.0,0004.94,0008.81,0004.42
2023-07-19 09:59:00,SystemResetWarning,0833.9,4.99,000.00,029.1,025.9,000.0,037.6,030.4,25.8,0000.0,0004.95,0009.12,0004.43
